カタログに戻る

DELTA 1 DEB

運用中LEO
NORAD 14510·DEBRIS·🇺🇸 United States

打ち上げ Jul 29, 1976 から Vandenberg Space Force Base

Loading…

次のパス (今後24時間)

TLE

最新Source: Space-Track

元期: Sep 14, 2026, 07:14 UTC

1 14510U 76077ER  26257.30179091  .00000142  00000-0  21194-2 0  9996
2 14510 102.4326 179.7981 0222575  62.1473  87.0243 11.99461097938437

AllMySatでDELTA 1 DEBをリアルタイム追跡

Download on the App Store